Flag for United Kingdom Weather past 2 weeks in Reading, England, United Kingdom

Now
41 °F

Clear.


Feels Like: 41 °F
Forecast: 43 / 64 °F
Wind: 2 mph from East

Location: Benson

Current Time: Sep 22, 2014 at 1:29:45 AM

Latest Report: Sep 21, 2014 at 11:50 PM


Visibility: 4 mi

Pressure: 30.33 "Hg

Humidity: 100%

Dew point: 41 °F

Location of ReadingLocation

Historic Weather in Reading — Graph

°F

Reading temperature yesterday

Maximum temperature yesterday: 64 °F (at 12:50 PM)
Minimum temperature yesterday: 41 °F (at 11:50 PM)
Average temperature yesterday: 56 °F

Past Weeks' High & Low Weather Summary

 TemperatureHumidityPressure
High77 °F (Sep 18, 2:50 PM)100% (Sep 6, 11:50 PM)30.33 "Hg (Sep 6, 11:50 PM)
Low41 °F (Sep 8, 4:50 AM)38% (Sep 8, 2:50 PM)29.77 "Hg (Sep 18, 1:50 PM)
Average59 °F80%30.07 "Hg
* Reported Sep 6 11:50 PM — Sep 21 11:50 PM, Reading, Weather by CustomWeather, © 2014

Note: Actual official high and low records may vary slightly from our data, if they occured in-between our weather recording intervals... More about our weather records

Advertising

Reading weather history for previous 24 hours

 ConditionsComfort  
Time TempWeatherWind HumidityBarometerVisibility
11:50 PM
Sep 21
41 °FClear.2 mph100%30.33 "Hg4 mi
10:50 PM43 °FClear.1 mph93%30.33 "Hg4 mi
9:50 PM46 °FClear.2 mph93%30.30 "Hg4 mi
8:50 PM50 °FPassing clouds.5 mph88%30.33 "Hg6 mi
7:50 PM55 °FPartly sunny.6 mph72%30.30 "HgN/A
6:50 PM59 °FOvercast.8 mph59%30.27 "HgN/A
5:50 PM63 °FPartly sunny.8 mph52%30.27 "HgN/A
4:50 PM64 °FSunny.10 mph49%30.27 "Hg10 mi
3:50 PM64 °FScattered clouds.13 mph46%30.27 "HgN/A
2:50 PM63 °FPartly sunny.14 mph45%30.27 "HgN/A
1:50 PM63 °FPartly sunny.15 mph49%30.27 "HgN/A
12:50 PM64 °FScattered clouds.14 mph46%30.27 "HgN/A
11:50 AM63 °FScattered clouds.15 mph52%30.24 "HgN/A
10:50 AM61 °FScattered clouds.14 mph63%30.24 "HgN/A
9:50 AM57 °FPassing clouds.9 mph77%30.27 "HgN/A
8:50 AM54 °FPassing clouds.7 mph88%30.24 "HgN/A
7:50 AM52 °FPartly sunny.5 mph94%30.24 "HgN/A
6:50 AM50 °FPassing clouds.7 mph94%30.21 "Hg6 mi
5:50 AM52 °FPassing clouds.8 mph94%30.18 "HgN/A
4:50 AM55 °FPassing clouds.12 mph82%30.18 "HgN/A
3:50 AM55 °FPassing clouds.9 mph88%30.15 "HgN/A
2:50 AM55 °FPassing clouds.8 mph88%30.15 "HgN/A
1:50 AM57 °FOvercast.12 mph82%30.15 "HgN/A
Weather by CustomWeather, © 2014

See weather overviewHow to use our weather pages